STARLINK-3648, 51993

Orbit data source: Space-Track

STARLINK-3648, 51993 is a payload satellite owned by SpaceX/Seattle (US) in LEO that was launched on Wed, 09 Mar 2022 UTC via an FALCON 9 launch vehicle from the Air Force Eastern Test Range (AFETR). Payload-class satellites include a variety of spacecraft equipped with specific instruments for various scientific and technological missions. These include communications satellites like Starlink; space stations such as the ISS; scientific satellites like the Hubble; Earth observation satellites from companies like Planet Labs, Umbra, and HawkEye 360; GPS; miniature CubeSats for education and research; and military/defense satellites.

Loading next visibility...
Identifier
51993, 2022-025AP
Orbit
LEO
Country
Flag of USUS
Related business
Manufacturer
SpaceX/Seattle
Mission
Operational Commercial Communications
Bus & Motor
STARLINK, Unknown motor
Mass
297 kg wet, ~275 kg dry
Launch date (UTC)
2022-03-09 (4 years ago)
Launch vehicle
FALCON 9
Launch site
Air Force Eastern Test Range (AFETR)
Object type
Payload
Rocket body
Debris
Shape & HBR
Box + 1 Pan, 10.1 m
Radar Cross Section
13.562 m², Large (>1 m²)

Expand to show TLE details & history
Last TLE update: 3 days ago

TLE from 3 days ago
0 STARLINK-3648
1 51993U 22025AP  26170.63605570 -.00014480  00000-0 -89219-3 0  9997
2 51993  53.1606 301.3527 0000730  69.7845 290.3225 15.08894491236452
Epoch: 2026-06-19T15:15Z
TLE epoch observation values (Epoch: 2026-06-19T15:15:55.212Z)
Latitude
-0.00001°
Longitude
164.51045°
Altitude
540.293 km
Speed
7.594 km/s
True Right ascension
20h 05m 24s
True Declination
0° 00' 00"
Sunlit
Object was in full shadow at epoch
Visualization orbit readout
Latitude
Unknown
Longitude
Unknown
Altitude
Unknown
Speed
Unknown
Apparent Right ascension
Unknown
Apparent Declination
Unknown
Sunlit
N/A
Visualization observer readout
Local Sidereal Time
00:55:51
Azimuth
Unknown
Elevation
Unknown
Doppler factor
Unknown
Orbital elements
Apogee altitude
540.336 km
Perigee altitude
539.326 km
Semi-major axis
6,917.968 km
Eccentricity
0.00007
Inclination
53.1606°
RAAN
301.3527°
Arg. of periapsis
69.7845°
True anomaly
290.31466°
Mean anomaly
290.3225°
Eccentric anomaly
290.31858°
Mean motion
3.77203 °/min
Orbital period
95.44 mins
BSTAR
-0.00089219
Loading maneuver chart data...
Computing Atmospheric mass density...
Loading historical data...
Loading historical data...
Loading historical data...
Loading historical data...
Loading historical data...
Loading historical data...
Loading historical data...

Documentation

Showing up to 5 results
|